Location: Newark
(7.0858°N, 171.3717°E)
Time: 01:44:17
(UTC+00:00)

Transit 2A - Pass Details

Date: 26 November 2020
Orbit: 598 x 960 km, 66.7° (Epoch: 20 January)

Event Time Altitude Azimuth Distance (km) Brightness Sun altitude
Rises 05:09:32 0° 198° (SSW) 3,536 10.1 14.1°
Reaches altitude 10° 05:12:00 10° 197° (SSW) 2,627 9.5 13.5°
Maximum altitude 05:18:13 83° 109° (ESE) 964 6.7 12.1°
Drops below altitude 10° 05:24:34 10° 22° (NNE) 2,678 8.4 10.7°
Sets 05:27:06 0° 22° (NNE) 3,609 9.1 10.1°
